This demonstration page uses our WeatherBlox Daily Observations layout. Learn more.

Hourly Observations for September 23, 2019

Temp ( °F °C ) Dew Point ( °F °C ) Humidity (%) Winds ( mph kmh ) Pressure ( in mb ) Visibility ( mi km ) Precip ( " mm )
12:15 am 00:15 Clear 59 15 52 11.2 78 78 SSW 6 9 30.01 1016 10 16.0934 0 0
12:35 am 00:35 Clear 58 14.6 52 11 79 79 SSW 7 11 30 1016 10 16.0934 0 0
12:55 am 00:55 Clear 59 14.9 52 11 78 78 SSW 8 13 30.01 1016 10 16.0934 0 0
1:15 am 01:15 Clear 58 14.6 52 11 79 79 SSW 6 9 30 1016 10 16.0934 0 0
1:35 am 01:35 Clear 57 13.8 52 10.9 83 83 SSW 5 7 30.02 1017 10 16.0934 0 0
1:55 am 01:55 Clear 57 13.7 52 10.9 83 83 SSW 6 9 30.03 1017 10 16.0934 0 0
2:15 am 02:15 Clear 57 13.9 51 10.8 82 82 SSW 6 9 30.02 1017 10 16.0934 0 0
2:35 am 02:35 Clear 56 13.6 51 10.7 83 83 SSW 6 9 30.03 1017 10 16.0934 0 0
2:55 am 02:55 Clear 56 13.3 51 10.7 84 84 SSW 5 7 30.03 1017 10 16.0934 0 0
3:15 am 03:15 Clear 56 13.1 51 10.7 86 86 SSW 6 9 30.04 1017 10 16.0934 0 0
3:35 am 03:35 Clear 56 13.1 51 10.5 84 84 SSW 3 6 30.03 1017 10 16.0934 0 0
3:55 am 03:55 Clear 55 13 51 10.5 85 85 SSW 3 6 30.03 1017 10 16.0934 0 0
4:15 am 04:15 Clear 55 13 51 10.3 84 84 SSW 5 7 30.03 1017 10 16.0934 0 0
4:35 am 04:35 Clear 55 12.9 51 10.5 85 85 SSW 3 6 30.02 1016 10 16.0934 0 0
4:55 am 04:55 Clear 55 12.5 51 10.3 87 87 SSW 5 7 30.03 1017 10 16.0934 0 0
5:15 am 05:15 Clear 53 11.7 50 10 89 89 SW 3 6 30.04 1017 10 16.0934 0 0
5:35 am 05:35 Clear 54 12.1 51 10.3 89 89 SSW 5 7 30.04 1017 10 16.0934 0 0
5:55 am 05:55 Clear 53 11.8 51 10.3 91 91 SW 5 7 30.04 1017 10 16.0934 0 0
6:15 am 06:15 Clear 54 12.2 51 10.5 89 89 SW 5 7 30.04 1017 10 16.0934 0 0
6:35 am 06:35 Clear 54 12.1 51 10.4 89 89 SW 3 6 30.04 1017 10 16.0934 0 0
6:55 am 06:55 Clear 54 12.2 50 10.2 88 88 Calm 30.04 1017 10 16.0934 0 0
7:15 am 07:15 Clear 51 10.6 49 9.7 94 94 Calm 30.05 1018 10 16.0934 0 0
7:35 am 07:35 Sunny 53 11.7 51 10.6 93 93 SW 5 7 30.06 1018 10 16.0934 0 0
7:55 am 07:55 Sunny 55 12.7 51 10.7 88 88 SW 5 7 30.05 1018 10 16.0934 0 0
8:15 am 08:15 Sunny 56 13.4 52 11.1 86 86 SW 6 9 30.04 1017 10 16.0934 0 0
8:35 am 08:35 Sunny 58 14.3 53 11.7 85 85 SW 5 7 30.04 1017 10 16.0934 0 0
8:55 am 08:55 Sunny 59 15.2 54 12 81 81 SW 7 11 30.04 1017 10 16.0934 0 0
9:15 am 09:15 Sunny 61 16.2 54 12.3 78 78 SW 7 11 30.03 1017 10 16.0934 0 0
9:35 am 09:35 Sunny 63 17.3 54 12.3 73 73 SW 9 15 30.02 1017 10 16.0934 0 0
9:55 am 09:55 Sunny 65 18.2 54 12.2 68 68 SW 9 15 30.02 1017 10 16.0934 0 0
10:15 am 10:15 Sunny 67 19.2 54 12.1 64 64 SW 13 20 30.01 1016 10 16.0934 0 0
10:35 am 10:35 Sunny 68 19.9 54 12.1 61 61 SW 13 20 30.01 1016 10 16.0934 0 0
10:55 am 10:55 Sunny 70 21.1 55 12.5 58 58 SW 9 15 30 1016 10 16.0934 0 0
11:15 am 11:15 Sunny 72 22.1 55 12.7 55 55 SW 9 15 29.99 1016 10 16.0934 0 0
11:35 am 11:35 Sunny 73 22.9 56 13.2 54 54 SW 10 17 29.98 1015 10 16.0934 0 0
11:55 am 11:55 Sunny 75 24 56 13.2 51 51 SW 12 19 29.96 1015 10 16.0934 0 0
12:15 pm 12:15 Sunny 76 24.6 56 13.1 49 49 SW 10 17 29.96 1015 10 16.0934 0 0
12:35 pm 12:35 Sunny 78 25.6 56 13.3 47 47 WSW 10 17 29.94 1014 10 16.0934 0 0
12:55 pm 12:55 Sunny 80 26.6 55 13 43 43 SW 10 17 29.93 1014 10 16.0934 0 0
1:15 pm 13:15 Sunny 81 27 55 12.7 41 41 SSW 16 26 29.92 1013 10 16.0934 0 0
1:35 pm 13:35 Sunny 82 27.6 56 13.1 41 41 SSW 13 20 29.91 1013 10 16.0934 0 0
1:55 pm 13:55 Sunny 82 27.7 54 12.4 39 39 S 15 24 29.9 1012 10 16.0934 0 0
2:15 pm 14:15 Sunny 83 28.1 53 11.7 36 36 SSW 14 22 29.87 1012 10 16.0934 0 0
2:35 pm 14:35 Sunny 83 28.6 53 11.5 35 35 S 15 24 29.87 1011 10 16.0934 0 0
2:55 pm 14:55 Sunny 83 28.6 53 11.7 35 35 S 12 19 29.86 1011 10 16.0934 0 0
3:15 pm 15:15 Sunny 84 29.1 52 11 33 33 SSW 15 24 29.84 1011 10 16.0934 0 0
3:35 pm 15:35 Sunny 84 28.8 52 10.9 33 33 SSW 13 20 29.85 1011 10 16.0934 0 0
3:55 pm 15:55 Sunny 84 29 52 11.1 33 33 S 13 20 29.85 1011 10 16.0934 0 0
4:15 pm 16:15 Sunny 84 28.9 52 11.2 33 33 S 17 28 29.84 1010 10 16.0934 0 0
4:35 pm 16:35 Sunny 83 28.6 51 10.3 32 32 S 15 24 29.84 1010 10 16.0934 0 0
4:55 pm 16:55 Sunny 83 28.5 51 10.8 33 33 SSW 12 19 29.83 1010 10 16.0934 0 0
5:15 pm 17:15 Sunny 82 27.8 50 10.1 33 33 SSW 14 22 29.83 1010 10 16.0934 0 0
5:35 pm 17:35 Sunny 82 27.6 52 11.1 36 36 S 8 13 29.84 1010 10 16.0934 0 0
5:55 pm 17:55 Sunny 81 27.3 52 11.2 37 37 S 8 13 29.83 1010 10 16.0934 0 0
6:15 pm 18:15 Sunny 80 26.5 53 11.5 39 39 S 7 11 29.84 1011 10 16.0934 0 0
6:35 pm 18:35 Sunny 79 26.1 54 12 42 42 S 7 11 29.84 1010 10 16.0934 0 0
6:55 pm 18:55 Sunny 77 24.9 55 13 48 48 SSE 5 7 29.85 1011 10 16.0934 0 0
7:15 pm 19:15 Sunny 74 23.6 56 13.5 53 53 S 6 9 29.86 1011 10 16.0934 0 0
7:35 pm 19:35 Clear 73 22.5 56 13.5 57 57 SSE 7 11 29.87 1011 10 16.0934 0 0
7:55 pm 19:55 Clear 72 22.1 56 13.5 58 58 SSE 6 9 29.87 1012 10 16.0934 0 0
8:15 pm 20:15 Clear 70 21.1 56 13.4 62 62 SSE 7 11 29.88 1012 10 16.0934 0 0
8:35 pm 20:35 Clear 69 20.3 56 13.3 64 64 SE 7 11 29.88 1012 10 16.0934 0 0
8:55 pm 20:55 Clear 66 19 56 13.2 69 69 SE 7 11 29.9 1012 10 16.0934 0 0
9:15 pm 21:15 Clear 66 18.8 55 13 69 69 SSE 7 11 29.9 1012 10 16.0934 0 0
9:35 pm 21:35 Clear 67 19.6 55 12.7 65 65 SSE 8 13 29.9 1013 10 16.0934 0 0
9:55 pm 21:55 Clear 67 19.5 55 12.5 64 64 SSE 8 13 29.9 1013 10 16.0934 0 0
10:15 pm 22:15 Clear 67 19.3 55 12.5 65 65 SSE 8 13 29.89 1012 10 16.0934 0 0
10:35 pm 22:35 Clear 67 19.3 54 12.1 63 63 SSE 9 15 29.89 1012 10 16.0934 0 0
10:55 pm 22:55 Clear 68 20 53 11.7 59 59 S 10 17 29.89 1012 10 16.0934 0 0
11:15 pm 23:15 Clear 68 20 53 11.7 59 59 S 8 13 29.89 1012 10 16.0934 0 0
11:35 pm 23:35 Clear 68 19.9 54 12 61 61 S 9 15 29.89 1012 10 16.0934 0 0
11:55 pm 23:55 Clear 68 20.1 55 12.6 62 62 S 12 19 29.88 1012 10 16.0934 0 0

Powered by AerisWeather